Location: Gniazdowice
(50.2124°N, 20.2673°E)
Time: 23:56:08
(UTC+00:00)

Meteor 1-28 Rocket - Pass Details

Date: 09 August 2024
Orbit: 468 x 483 km, 97.5° (Epoch: 08 September)

Event Time Altitude Azimuth Distance (km) Brightness Sun altitude
Exits shadow 01:35:40 21° 190° (S) 1,140 4.4 -14.1°
Maximum altitude 01:37:50 52° 260° (W) 617 3.2 -13.9°
Drops below altitude 10° 01:41:23 10° 338° (NNW) 1,685 6.1 -13.5°
Sets 01:43:30 0° 343° (NNW) 2,568 7.2 -13.2°
